Home   Weather   Cap aux Renards   Past weeks
Flag for Saint Pierre and Miquelon

Past Weather in Cap aux Renards, Saint Pierre and Miquelon — Yesterday and Last 2 Weeks

Currently: 57 °F. Light fog. (Weather station: Saint-Pierre, Saint Pierre and Miquelon). See more current weather

Past Weather in Cap aux Renards — Graph

°F

Cap aux Renards Temperature Yesterday

Maximum temperature yesterday: 70 °F (at 3:30 pm)
Minimum temperature yesterday: 57 °F (at 4:30 am)
Average temperature yesterday: 62 °F

High & Low Weather Summary for the Past Weeks

 TemperatureHumidityPressure
High77 °F (Jul 8, 2:30 pm)100% (Jun 29, 10:30 pm)30.36 "Hg (Jun 29, 10:30 pm)
Low48 °F (Jun 30, 2:30 am)56% (Jul 3, 7:00 pm)29.80 "Hg (Jul 1, 1:30 am)
Average58 °F95%30.00 "Hg
* Reported Jun 29 8:00 pm — Jul 14 8:30 pm, Cap aux Renards. Weather by CustomWeather, © 2024

Note: Actual official high and low records may vary slightly from our data, if they occured in-between our weather recording intervals... More about our weather records

Cap aux Renards Weather History for the Previous 24 Hours

Scroll right to see more
 ConditionsComfort  
Time TempWeatherWind HumidityBarometerVisibility
8:30 pm
Sun, Jul 14
57 °FFog.6 mph100%29.86 "Hg1 mi
8:00 pm57 °FFog.7 mph100%29.86 "Hg1 mi
7:30 pm57 °FFog.10 mph100%29.86 "Hg1 mi
7:00 pm57 °FDense fog.3 mph100%29.86 "Hg1 mi
6:30 pm57 °FFog.12 mph100%29.83 "Hg1 mi
6:00 pm57 °FMostly cloudy.12 mph100%29.83 "HgN/A
5:30 pm59 °FMostly cloudy.15 mph94%29.83 "Hg6 mi
5:00 pm59 °FFog.15 mph94%29.83 "Hg1 mi
4:30 pm61 °FMostly cloudy.14 mph94%29.86 "Hg4 mi
4:00 pm59 °FFog.15 mph100%29.86 "Hg1 mi
3:30 pm59 °FFog.14 mph100%29.86 "Hg2 mi
3:00 pm59 °FFog.12 mph100%29.86 "Hg1 mi
2:30 pm59 °FFog.10 mph100%29.89 "Hg1 mi
2:00 pm59 °FFog.7 mph100%29.89 "Hg1 mi
1:30 pm59 °FFog.8 mph100%29.89 "Hg1 mi
1:00 pm59 °FFog.12 mph100%29.89 "Hg1 mi
12:30 pm59 °FFog.12 mph100%29.89 "Hg1 mi
12:00 pm59 °FDense fog.12 mph100%29.92 "Hg1 mi
11:30 am59 °FFog.8 mph100%29.92 "Hg1 mi
11:00 am61 °FFog.10 mph100%29.92 "Hg0 mi
10:30 am61 °FFog.6 mph100%29.92 "Hg0 mi
10:00 am61 °FFog.5 mph100%29.92 "Hg0 mi
9:30 am61 °FFog.2 mph100%29.92 "Hg0 mi
9:00 am61 °FFog.3 mph100%29.92 "Hg0 mi
8:30 am61 °FFog.3 mph100%29.92 "Hg0 mi
8:00 am59 °FFog.6 mph100%29.92 "Hg0 mi
7:30 am59 °FFog.6 mph100%29.92 "Hg0 mi
7:00 am61 °FDense fog.3 mph100%29.92 "Hg1 mi
6:30 am63 °FFog.2 mph100%29.89 "Hg1 mi
6:00 am61 °FFog.7 mph100%29.89 "Hg1 mi
5:30 am61 °FFog.10 mph100%29.92 "Hg1 mi
5:00 am61 °FFog.7 mph100%29.92 "Hg1 mi
4:30 am63 °FFog.6 mph100%29.89 "Hg1 mi
4:00 am64 °FLight fog.8 mph100%29.92 "Hg4 mi
3:30 am64 °FFog.15 mph100%29.92 "Hg1 mi
3:00 am59 °FFog.16 mph100%29.92 "Hg1 mi
2:30 am61 °FFog.12 mph100%29.92 "Hg0 mi
2:00 am63 °FFog.5 mph100%29.92 "Hg1 mi
1:30 am61 °FFog.16 mph100%29.95 "Hg1 mi
1:00 am63 °FDense fog.14 mph100%29.95 "Hg1 mi
12:30 am63 °FFog.8 mph100%29.95 "Hg2 mi
12:00 am63 °FFog.10 mph100%29.95 "Hg1 mi
11:30 pm
Sat, Jul 13
63 °FFog.10 mph100%29.95 "Hg0 mi
11:00 pm61 °FFog.6 mph100%29.95 "Hg1 mi
10:30 pm61 °FFog.13 mph100%29.95 "Hg1 mi
10:00 pm61 °FFog.15 mph100%29.95 "Hg1 mi
9:30 pm61 °FFog.13 mph100%29.95 "Hg0 mi
9:00 pm61 °FFog.13 mph100%29.95 "Hg0 mi
Weather by CustomWeather, © 2024

See weather overview